This is the latest recevied weather packets stored in our database for station/object IU2EBF-4. If no packets are shown the sender has not sent any weather packets the latest 10 day(s).
| Time | Temp. | Humidity | Pressure | Rain* | Wind** | Luminosity | Snow |
|---|---|---|---|---|---|---|---|
| 1777276751 | 18.33° C | 47% | 1045 hPa | - | - | - | - |
| 1777276026 | 16.11° C | 45% | 1045 hPa | - | - | - | - |
| 1777275301 | 19.44° C | 45% | 1045 hPa | - | - | - | - |
| 1777274576 | 17.22° C | 47% | 1045 hPa | - | - | - | - |
| 1777273851 | 15.56° C | 47% | 1045 hPa | - | - | - | - |
| 1777273127 | 13.89° C | 50% | 1045 hPa | - | - | - | - |
| 1777272402 | 11.67° C | 51% | 1045 hPa | - | - | - | - |
| 1777271677 | 10.56° C | 50% | 1045 hPa | - | - | - | - |
| 1777270952 | 10.56° C | 50% | 1045 hPa | - | - | - | - |
| 1777270260 | 11.11° C | 50% | 1045 hPa | - | - | - | - |
| 1777270227 | 11.11° C | 50% | 1045 hPa | - | - | - | - |
| 1777269502 | 11.11° C | 51% | 1045 hPa | - | - | - | - |
| 1777268777 | 9.44° C | 52% | 1045 hPa | - | - | - | - |
| 1777268053 | 10° C | 52% | 1045 hPa | - | - | - | - |
| 1777267328 | 9.44° C | 53% | 1045 hPa | - | - | - | - |
| 1777266603 | 8.89° C | 53% | 1044 hPa | - | - | - | - |
| 1777265878 | 8.33° C | 53% | 1044 hPa | - | - | - | - |
| 1777265153 | 7.22° C | 54% | 1044 hPa | - | - | - | - |
| 1777264428 | 7.22° C | 53% | 1044 hPa | - | - | - | - |
| 1777263704 | 6.67° C | 53% | 1044 hPa | - | - | - | - |
| 1777262979 | 6.67° C | 52% | 1044 hPa | - | - | - | - |
| 1777262254 | 6.67° C | 52% | 1044 hPa | - | - | - | - |
| 1777261529 | 6.67° C | 52% | 1044 hPa | - | - | - | - |
| 1777260804 | 6.67° C | 52% | 1044 hPa | - | - | - | - |
| 1777260079 | 6.67° C | 52% | 1044 hPa | - | - | - | - |
* Rain since midnight (hover to see other rain measurements)
** Current wind speed in m/s (hover to see current wind gust speed)